User: anonymous
Location: Montr�al
(45.5000°N, 73.5830°W)
Time: 02:37:31
(UTC-04:00)
Language:

Cosmos 1470 Rocket - Orbit

View from above orbital plane
View from above orbital plane
View from above satellite
View from above satellite

Ground track
Ground track

The orbit data is extracted from the following two-line orbital elements,

1 14148U 83061B   14209.52475312  .00000250  00000-0  27972-4 0  7054
2 14148 082.5201 177.1091 0021535 203.8500 295.2307 14.82686306678528
Epoch (UTC): 28 July 2014 12:35:38
Eccentricity: 0.0021535
inclination: 82.5201°
perigee height: 606 km
apogee height: 636 km
right ascension of ascending node: 177.1091°
argument of perigee: 203.8500°
revolutions per day: 14.82686306
mean anomaly at epoch: 295.2307°
orbit number at epoch: 67852

The dashed part of the orbit path shows where the satellite is in the earth's shadow,  

DLR